| time (UTC) | temp C | wind direction | speed KPH | gust KPH | rain 1hr cm | rain 24hr cm | rain mn cm | humidity % | barometer mb |
| 20260509051601 | 16 | 257 | 0.0 | 8.0 | 0.00 | 0.00 | 0.00 | 89 | 1013.5 |
| 20260509051105 | 16 | 263 | 4.8 | 8.0 | 0.00 | 0.00 | 0.00 | 89 | 1013.4 |
| 20260509050603 | 16 | 251 | 4.8 | 9.7 | 0.00 | 0.00 | 0.00 | 88 | 1013.5 |
| 20260509045601 | 16 | 266 | 6.4 | 9.7 | 0.00 | 0.00 | 0.00 | 88 | 1013.4 |
| 20260509045100 | 16 | 285 | 3.2 | 8.0 | 0.00 | 0.00 | 0.00 | 88 | 1013.4 |
| 20260509044602 | 16 | 254 | 4.8 | 8.0 | 0.00 | 0.00 | 0.00 | 88 | 1013.4 |
| 20260509044101 | 16 | 311 | 3.2 | 8.0 | 0.00 | 0.00 | 0.00 | 88 | 1013.3 |
| 20260509043601 | 16 | 281 | 1.6 | 11.3 | 0.00 | 0.00 | 0.00 | 88 | 1013.3 |
| 20260509043100 | 16 | 297 | 6.4 | 11.3 | 0.00 | 0.00 | 0.00 | 88 | 1013.3 |
| 20260509042602 | 16 | 292 | 4.8 | 12.9 | 0.00 | 0.00 | 0.00 | 88 | 1013.3 |
| 20260509042102 | 16 | 325 | 4.8 | 14.5 | 0.00 | 0.00 | 0.00 | 88 | 1013.2 |
| 20260509041601 | 16 | 344 | 11.3 | 14.5 | 0.00 | 0.00 | 0.00 | 88 | 1013.2 |
| 20260509041101 | 16 | 348 | 11.3 | 16.1 | 0.00 | 0.00 | 0.00 | 87 | 1013.1 |
| 20260509040603 | 16 | 352 | 9.7 | 19.3 | 0.00 | 0.00 | 0.00 | 88 | 1013.1 |
| 20260509040324 | 16 | 347 | 12.9 | 19.3 | 0.00 | 0.00 | 0.00 | 88 | 1013.0 |
| 20260509035600 | 16 | 351 | 14.5 | 16.1 | 0.00 | 0.00 | 0.00 | 88 | 1013.1 |
| 20260509035100 | 16 | 294 | 9.7 | 11.3 | 0.00 | 0.00 | 0.00 | 88 | 1013.0 |
| 20260509034601 | 16 | 265 | 3.2 | 11.3 | 0.00 | 0.00 | 0.00 | 88 | 1013.1 |
| 20260509034104 | 16 | 277 | 8.0 | 11.3 | 0.00 | 0.00 | 0.00 | 88 | 1013.0 |
| 20260509033823 | 16 | 304 | 6.4 | 11.3 | 0.00 | 0.00 | 0.00 | 88 | 1012.9 |
| 20260509033100 | 16 | 332 | 8.0 | 11.3 | 0.00 | 0.00 | 0.00 | 88 | 1012.8 |
| 20260509032602 | 16 | 301 | 3.2 | 9.7 | 0.00 | 0.00 | 0.00 | 89 | 1012.8 |
| 20260509032328 | 16 | 293 | 6.4 | 11.3 | 0.00 | 0.00 | 0.00 | 89 | 1012.8 |
| 20260509031558 | 16 | 263 | 0.0 | 11.3 | 0.00 | 0.00 | 0.00 | 89 | 1012.8 |
| 20260509031100 | 16 | 306 | 8.0 | 9.7 | 0.00 | 0.00 | 0.00 | 89 | 1012.8 |
| 20260509030559 | 16 | 261 | 3.2 | 9.7 | 0.00 | 0.00 | 0.00 | 89 | 1012.8 |
| 20260509030059 | 16 | 280 | 1.6 | 9.7 | 0.00 | 0.00 | 0.00 | 88 | 1012.7 |
| 20260509025557 | 16 | 342 | 4.8 | 11.3 | 0.00 | 0.00 | 0.00 | 88 | 1012.7 |
| 20260509025058 | 16 | 271 | 3.2 | 11.3 | 0.00 | 0.00 | 0.00 | 88 | 1012.6 |
| 20260509024559 | 16 | 262 | 3.2 | 11.3 | 0.00 | 0.00 | 0.00 | 88 | 1012.6 |
| 20260509024058 | 16 | 258 | 0.0 | 12.9 | 0.00 | 0.00 | 0.00 | 88 | 1012.5 |
| 20260509023559 | 16 | 265 | 3.2 | 12.9 | 0.00 | 0.00 | 0.00 | 88 | 1012.5 |
| 20260509023057 | 16 | 237 | 3.2 | 11.3 | 0.00 | 0.00 | 0.00 | 88 | 1012.5 |
| 20260509022558 | 17 | 274 | 3.2 | 11.3 | 0.00 | 0.00 | 0.00 | 87 | 1012.4 |
| 20260509022058 | 17 | 267 | 8.0 | 11.3 | 0.00 | 0.00 | 0.00 | 87 | 1012.5 |
| 20260509021558 | 17 | 326 | 4.8 | 11.3 | 0.00 | 0.00 | 0.00 | 87 | 1012.3 |
| 20260509021057 | 17 | 275 | 6.4 | 11.3 | 0.00 | 0.00 | 0.00 | 86 | 1012.4 |
| 20260509020559 | 17 | 328 | 6.4 | 14.5 | 0.00 | 0.00 | 0.00 | 85 | 1012.3 |
| 20260509020058 | 17 | 318 | 4.8 | 14.5 | 0.00 | 0.00 | 0.00 | 84 | 1012.3 |
| 20260509015556 | 18 | 323 | 3.2 | 12.9 | 0.00 | 0.00 | 0.00 | 84 | 1012.2 |
| 20260509015057 | 18 | 258 | 3.2 | 12.9 | 0.00 | 0.00 | 0.00 | 83 | 1012.2 |
| 20260509014559 | 18 | 239 | 4.8 | 12.9 | 0.00 | 0.00 | 0.00 | 82 | 1012.2 |
| 20260509014059 | 18 | 286 | 6.4 | 14.5 | 0.00 | 0.00 | 0.00 | 82 | 1012.1 |
| 20260509013556 | 18 | 273 | 4.8 | 14.5 | 0.00 | 0.00 | 0.00 | 81 | 1012.1 |
| 20260509013057 | 18 | 260 | 4.8 | 12.9 | 0.00 | 0.00 | 0.00 | 80 | 1012.2 |
| 20260509012557 | 18 | 304 | 4.8 | 12.9 | 0.00 | 0.00 | 0.00 | 79 | 1012.2 |
| 20260509012058 | 18 | 306 | 1.6 | 12.9 | 0.00 | 0.00 | 0.00 | 78 | 1012.1 |
| 20260509011556 | 18 | 345 | 4.8 | 12.9 | 0.00 | 0.00 | 0.00 | 79 | 1012.2 |
| 20260509011056 | 19 | 273 | 3.2 | 12.9 | 0.00 | 0.00 | 0.00 | 79 | 1012.2 |
| 20260509010557 | 19 | 258 | 3.2 | 12.9 | 0.00 | 0.00 | 0.00 | 79 | 1012.2 |
| 20260509010057 | 19 | 269 | 4.8 | 12.9 | 0.00 | 0.00 | 0.00 | 79 | 1012.2 |
| 20260509005556 | 20 | 241 | 4.8 | 12.9 | 0.00 | 0.00 | 0.00 | 77 | 1012.2 |
| 20260509005055 | 20 | 300 | 8.0 | 14.5 | 0.00 | 0.00 | 0.00 | 78 | 1012.2 |
| 20260509004555 | 20 | 294 | 9.7 | 14.5 | 0.00 | 0.00 | 0.00 | 77 | 1012.2 |
| 20260509004315 | 20 | 258 | 3.2 | 11.3 | 0.00 | 0.00 | 0.00 | 76 | 1012.2 |
| 20260509003557 | 20 | 251 | 4.8 | 11.3 | 0.00 | 0.00 | 0.00 | 76 | 1012.2 |
| 20260509003055 | 20 | 275 | 4.8 | 11.3 | 0.00 | 0.00 | 0.00 | 74 | 1012.2 |
| 20260509002611 | 20 | 291 | 4.8 | 12.9 | 0.00 | 0.00 | 0.00 | 75 | 1012.3 |
| 20260509002056 | 20 | 251 | 3.2 | 12.9 | 0.00 | 0.00 | 0.00 | 75 | 1012.2 |
| 20260509001559 | 20 | 211 | 3.2 | 12.9 | 0.00 | 0.00 | 0.00 | 75 | 1012.2 |
| 20260509001315 | 20 | 262 | 6.4 | 12.9 | 0.00 | 0.00 | 0.00 | 74 | 1012.2 |
| 20260509000554 | 20 | 284 | 1.6 | 12.9 | 0.00 | 0.00 | 0.00 | 74 | 1012.3 |
| 20260509000326 | 20 | 261 | 3.2 | 14.5 | 0.00 | 0.00 | 0.00 | 73 | 1012.3 |
| 20260508235557 | 20 | 328 | 8.0 | 14.5 | 0.00 | 0.00 | 0.00 | 75 | 1012.3 |
| 20260508235055 | 20 | 258 | 4.8 | 12.9 | 0.00 | 0.00 | 0.00 | 75 | 1012.4 |
| 20260508234554 | 20 | 243 | 4.8 | 14.5 | 0.00 | 0.00 | 0.00 | 72 | 1012.4 |
| 20260508234055 | 20 | 304 | 8.0 | 16.1 | 0.00 | 0.00 | 0.00 | 74 | 1012.5 |
| 20260508233555 | 20 | 331 | 8.0 | 16.1 | 0.00 | 0.00 | 0.00 | 72 | 1012.4 |
| 20260508233053 | 20 | 257 | 4.8 | 14.5 | 0.00 | 0.00 | 0.00 | 73 | 1012.4 |
| 20260508232553 | 20 | 310 | 9.7 | 14.5 | 0.00 | 0.00 | 0.00 | 74 | 1012.4 |
| 20260508232053 | 20 | 359 | 6.4 | 16.1 | 0.00 | 0.00 | 0.00 | 74 | 1012.4 |
| 20260508231816 | 20 | 319 | 4.8 | 16.1 | 0.00 | 0.00 | 0.00 | 74 | 1012.6 |
| 20260508231052 | 20 | 8 | 9.7 | 16.1 | 0.00 | 0.00 | 0.00 | 75 | 1012.6 |
| 20260508230823 | 20 | 340 | 8.0 | 12.9 | 0.00 | 0.00 | 0.00 | 73 | 1012.7 |
| 20260508230314 | 19 | 339 | 4.8 | 16.1 | 0.00 | 0.00 | 0.00 | 75 | 1012.7 |
| 20260508225554 | 19 | 287 | 9.7 | 20.9 | 0.00 | 0.00 | 0.00 | 74 | 1012.7 |
| 20260508225054 | 19 | 215 | 4.8 | 20.9 | 0.00 | 0.00 | 0.00 | 74 | 1012.7 |
| 20260508224553 | 19 | 303 | 9.7 | 16.1 | 0.00 | 0.00 | 0.00 | 75 | 1012.7 |
| 20260508224052 | 19 | 332 | 9.7 | 20.9 | 0.00 | 0.00 | 0.00 | 73 | 1012.9 |
| 20260508223553 | 19 | 260 | 9.7 | 20.9 | 0.00 | 0.00 | 0.00 | 75 | 1012.9 |
| 20260508223053 | 19 | 327 | 14.5 | 20.9 | 0.00 | 0.00 | 0.00 | 75 | 1012.9 |
| 20260508222553 | 19 | 320 | 6.4 | 20.9 | 0.00 | 0.00 | 0.00 | 75 | 1012.9 |
| 20260508222054 | 19 | 337 | 3.2 | 20.9 | 0.00 | 0.00 | 0.00 | 77 | 1012.9 |
| 20260508221553 | 19 | 326 | 6.4 | 24.1 | 0.00 | 0.00 | 0.00 | 76 | 1013.0 |
| 20260508221315 | 19 | 277 | 8.0 | 24.1 | 0.00 | 0.00 | 0.00 | 76 | 1013.1 |
| 20260508220553 | 19 | 325 | 12.9 | 25.7 | 0.00 | 0.00 | 0.00 | 77 | 1013.1 |
| 20260508220052 | 20 | 1 | 17.7 | 25.7 | 0.00 | 0.00 | 0.00 | 77 | 1013.1 |
| 20260508215553 | 20 | 18 | 9.7 | 20.9 | 0.00 | 0.00 | 0.00 | 75 | 1013.1 |
| 20260508215324 | 20 | 336 | 12.9 | 20.9 | 0.00 | 0.00 | 0.00 | 75 | 1013.3 |
| 20260508214816 | 20 | 249 | 4.8 | 16.1 | 0.00 | 0.00 | 0.00 | 74 | 1013.2 |
| 20260508214051 | 20 | 273 | 8.0 | 19.3 | 0.00 | 0.00 | 0.00 | 72 | 1013.3 |
| 20260508213554 | 20 | 319 | 6.4 | 19.3 | 0.00 | 0.00 | 0.00 | 73 | 1013.3 |
| 20260508213316 | 20 | 304 | 11.3 | 19.3 | 0.00 | 0.00 | 0.00 | 73 | 1013.3 |
| 20260508212816 | 20 | 301 | 6.4 | 24.1 | 0.00 | 0.00 | 0.00 | 73 | 1013.4 |
| 20260508212051 | 20 | 266 | 11.3 | 24.1 | 0.00 | 0.00 | 0.00 | 74 | 1013.3 |
| 20260508211552 | 20 | 348 | 8.0 | 14.5 | 0.00 | 0.00 | 0.00 | 72 | 1013.4 |
| 20260508211052 | 20 | 267 | 8.0 | 14.5 | 0.00 | 0.00 | 0.00 | 72 | 1013.3 |
| 20260508210807 | 20 | 262 | 4.8 | 14.5 | 0.00 | 0.00 | 0.00 | 71 | 1013.3 |
| 20260508210051 | 20 | 298 | 6.4 | 16.1 | 0.00 | 0.00 | 0.00 | 71 | 1013.2 |
| 20260508205551 | 20 | 231 | 3.2 | 16.1 | 0.00 | 0.00 | 0.00 | 72 | 1013.2 |
| 20260508205052 | 21 | 303 | 4.8 | 14.5 | 0.00 | 0.00 | 0.00 | 71 | 1013.2 |
| 20260508204550 | 21 | 281 | 8.0 | 14.5 | 0.00 | 0.00 | 0.00 | 72 | 1013.2 |
| 20260508204049 | 21 | 273 | 1.6 | 12.9 | 0.00 | 0.00 | 0.00 | 71 | 1013.4 |
| 20260508203811 | 20 | 296 | 4.8 | 12.9 | 0.00 | 0.00 | 0.00 | 72 | 1013.3 |
| 20260508203051 | 21 | 311 | 6.4 | 16.1 | 0.00 | 0.00 | 0.00 | 72 | 1013.3 |
| 20260508202550 | 21 | 295 | 3.2 | 16.1 | 0.00 | 0.00 | 0.00 | 71 | 1013.3 |
| 20260508202314 | 21 | 325 | 9.7 | 12.9 | 0.00 | 0.00 | 0.00 | 70 | 1013.3 |
| 20260508201549 | 21 | 277 | 9.7 | 16.1 | 0.00 | 0.00 | 0.00 | 71 | 1013.3 |
| 20260508201051 | 21 | 256 | 4.8 | 16.1 | 0.00 | 0.00 | 0.00 | 72 | 1013.4 |
| 20260508200549 | 21 | 334 | 6.4 | 14.5 | 0.00 | 0.00 | 0.00 | 72 | 1013.4 |
| 20260508200050 | 20 | 309 | 6.4 | 14.5 | 0.00 | 0.00 | 0.00 | 72 | 1013.5 |
| 20260508195809 | 20 | 265 | 4.8 | 16.1 | 0.00 | 0.00 | 0.00 | 71 | 1013.5 |
| 20260508195050 | 20 | 276 | 9.7 | 16.1 | 0.00 | 0.00 | 0.00 | 70 | 1013.6 |
| 20260508194550 | 20 | 292 | 4.8 | 14.5 | 0.00 | 0.00 | 0.00 | 71 | 1013.6 |
| 20260508194048 | 20 | 277 | 4.8 | 16.1 | 0.00 | 0.00 | 0.00 | 71 | 1013.6 |
| 20260508193549 | 21 | 241 | 6.4 | 16.1 | 0.00 | 0.00 | 0.00 | 71 | 1013.6 |
| 20260508193050 | 21 | 277 | 8.0 | 11.3 | 0.00 | 0.00 | 0.00 | 71 | 1013.8 |
| 20260508192550 | 21 | 275 | 6.4 | 14.5 | 0.00 | 0.00 | 0.00 | 73 | 1013.8 |
| 20260508192313 | 21 | 291 | 6.4 | 14.5 | 0.00 | 0.00 | 0.00 | 73 | 1013.8 |
| 20260508191049 | 21 | 247 | 3.2 | 16.1 | 0.00 | 0.00 | 0.00 | 72 | 1014.0 |
| 20260508190549 | 21 | 261 | 4.8 | 14.5 | 0.00 | 0.00 | 0.00 | 70 | 1013.9 |
| 20260508190314 | 21 | 348 | 9.7 | 14.5 | 0.00 | 0.00 | 0.00 | 72 | 1013.9 |
| 20260508185549 | 21 | 284 | 6.4 | 14.5 | 0.00 | 0.00 | 0.00 | 70 | 1014.0 |
| 20260508185048 | 20 | 246 | 4.8 | 14.5 | 0.00 | 0.00 | 0.00 | 70 | 1014.0 |
| 20260508184550 | 20 | 269 | 8.0 | 14.5 | 0.00 | 0.00 | 0.00 | 71 | 1014.0 |
| 20260508184048 | 20 | 289 | 4.8 | 14.5 | 0.00 | 0.00 | 0.00 | 72 | 1014.1 |
| 20260508183547 | 20 | 293 | 4.8 | 14.5 | 0.00 | 0.00 | 0.00 | 72 | 1014.2 |
| 20260508183050 | 20 | 340 | 8.0 | 16.1 | 0.00 | 0.00 | 0.00 | 72 | 1014.2 |
| 20260508182548 | 20 | 275 | 4.8 | 16.1 | 0.00 | 0.00 | 0.00 | 73 | 1014.3 |
| 20260508182047 | 20 | 294 | 8.0 | 12.9 | 0.00 | 0.00 | 0.00 | 74 | 1014.3 |
| 20260508181547 | 20 | 309 | 8.0 | 16.1 | 0.00 | 0.00 | 0.00 | 73 | 1014.3 |
| 20260508181048 | 20 | 355 | 9.7 | 16.1 | 0.00 | 0.00 | 0.00 | 71 | 1014.3 |
| 20260508180548 | 19 | 294 | 3.2 | 16.1 | 0.00 | 0.00 | 0.00 | 72 | 1014.4 |
| 20260508180047 | 19 | 303 | 3.2 | 16.1 | 0.00 | 0.00 | 0.00 | 73 | 1014.4 |
| 20260508175813 | 18 | 42 | 1.6 | 14.5 | 0.00 | 0.00 | 0.00 | 75 | 1014.4 |
| 20260508174547 | 18 | 348 | 9.7 | 14.5 | 0.00 | 0.00 | 0.00 | 76 | 1014.5 |
| 20260508174045 | 18 | 330 | 12.9 | 14.5 | 0.00 | 0.00 | 0.00 | 77 | 1014.5 |
| 20260508173547 | 18 | 342 | 9.7 | 14.5 | 0.00 | 0.00 | 0.00 | 78 | 1014.6 |
| 20260508173048 | 18 | 330 | 8.0 | 11.3 | 0.00 | 0.00 | 0.00 | 77 | 1014.6 |
| 20260508172546 | 18 | 259 | 3.2 | 9.7 | 0.00 | 0.00 | 0.00 | 75 | 1014.6 |
| 20260508172310 | 18 | 282 | 1.6 | 9.7 | 0.00 | 0.00 | 0.00 | 78 | 1014.7 |
| 20260508171546 | 18 | 302 | 8.0 | 9.7 | 0.00 | 0.00 | 0.00 | 77 | 1014.6 |
| 20260508171045 | 18 | 271 | 1.6 | 9.7 | 0.00 | 0.00 | 0.00 | 77 | 1014.7 |
| 20260508170546 | 17 | 259 | 1.6 | 9.7 | 0.00 | 0.00 | 0.00 | 79 | 1014.7 |
| 20260508170046 | 17 | 283 | 3.2 | 8.0 | 0.00 | 0.00 | 0.00 | 80 | 1014.7 |
| 20260508165546 | 17 | 291 | 1.6 | 9.7 | 0.00 | 0.00 | 0.00 | 81 | 1014.7 |
| 20260508165044 | 17 | 260 | 3.2 | 9.7 | 0.00 | 0.00 | 0.00 | 81 | 1014.7 |
| 20260508164546 | 17 | 300 | 1.6 | 9.7 | 0.00 | 0.00 | 0.00 | 80 | 1014.8 |
| 20260508164046 | 16 | 256 | 0.0 | 9.7 | 0.00 | 0.00 | 0.00 | 80 | 1014.8 |
| 20260508163544 | 16 | 272 | 1.6 | 8.0 | 0.00 | 0.00 | 0.00 | 82 | 1014.8 |
| 20260508163041 | 16 | 281 | 3.2 | 9.7 | 0.00 | 0.00 | 0.00 | 82 | 1014.8 |
| 20260508162545 | 16 | 283 | 6.4 | 9.7 | 0.00 | 0.00 | 0.00 | 83 | 1014.8 |
| 20260508162046 | 16 | 358 | 3.2 | 9.7 | 0.00 | 0.00 | 0.00 | 83 | 1014.8 |
| 20260508161544 | 16 | 2 | 4.8 | 11.3 | 0.00 | 0.00 | 0.00 | 83 | 1014.7 |
| 20260508161045 | 16 | 300 | 6.4 | 11.3 | 0.00 | 0.00 | 0.00 | 84 | 1014.8 |
| 20260508160546 | 16 | 338 | 8.0 | 11.3 | 0.00 | 0.00 | 0.00 | 84 | 1014.9 |
| 20260508160045 | 16 | 286 | 0.0 | 8.0 | 0.00 | 0.00 | 0.00 | 85 | 1014.9 |
| 20260508155544 | 16 | 277 | 4.8 | 4.8 | 0.00 | 0.00 | 0.00 | 84 | 1014.9 |
| 20260508155044 | 16 | 271 | 3.2 | 3.2 | 0.00 | 0.00 | 0.00 | 84 | 1015.0 |
| 20260508154804 | 16 | 259 | 0.0 | 3.2 | 0.00 | 0.00 | 0.00 | 84 | 1014.9 |
| 20260508154044 | 16 | 254 | 1.6 | 4.8 | 0.00 | 0.00 | 0.00 | 84 | 1014.9 |
| 20260508153543 | 16 | 282 | 1.6 | 4.8 | 0.00 | 0.00 | 0.00 | 85 | 1014.9 |
| 20260508153304 | 16 | 283 | 1.6 | 8.0 | 0.00 | 0.00 | 0.00 | 85 | 1015.0 |
| 20260508152544 | 16 | 246 | 1.6 | 8.0 | 0.00 | 0.00 | 0.00 | 86 | 1015.0 |
| 20260508152044 | 16 | 232 | 6.4 | 8.0 | 0.00 | 0.00 | 0.00 | 85 | 1015.0 |
| 20260508151808 | 16 | 256 | 0.0 | 8.0 | 0.00 | 0.00 | 0.00 | 86 | 1014.9 |
| 20260508151305 | 16 | 237 | 0.0 | 8.0 | 0.00 | 0.00 | 0.00 | 86 | 1015.0 |
| 20260508150544 | 16 | 263 | 3.2 | 4.8 | 0.00 | 0.00 | 0.00 | 86 | 1014.9 |
| 20260508150043 | 16 | 264 | 1.6 | 4.8 | 0.00 | 0.00 | 0.00 | 87 | 1015.0 |
| 20260508145542 | 16 | 291 | 1.6 | 4.8 | 0.00 | 0.00 | 0.00 | 87 | 1015.0 |
| 20260508145307 | 16 | 250 | 0.0 | 3.2 | 0.00 | 0.00 | 0.00 | 87 | 1014.9 |
| 20260508144544 | 16 | 257 | 1.6 | 3.2 | 0.00 | 0.00 | 0.00 | 87 | 1014.9 |
| 20260508144045 | 15 | 265 | 0.0 | 0.0 | 0.00 | 0.00 | 0.00 | 87 | 1014.9 |
| 20260508143541 | 15 | 267 | 0.0 | 1.6 | 0.00 | 0.00 | 0.00 | 87 | 1014.9 |
| 20260508143041 | 15 | 256 | 0.0 | 1.6 | 0.00 | 0.00 | 0.00 | 87 | 1014.9 |
| 20260508142543 | 15 | 258 | 0.0 | 1.6 | 0.00 | 0.00 | 0.00 | 87 | 1014.9 |
| 20260508142043 | 15 | 256 | 0.0 | 1.6 | 0.00 | 0.00 | 0.00 | 87 | 1014.8 |
| 20260508141544 | 15 | 257 | 0.0 | 1.6 | 0.00 | 0.00 | 0.00 | 88 | 1014.7 |
| 20260508141043 | 15 | 267 | 0.0 | 1.6 | 0.00 | 0.00 | 0.00 | 88 | 1014.7 |
| 20260508140541 | 15 | 269 | 0.0 | 1.6 | 0.00 | 0.00 | 0.00 | 88 | 1014.6 |
| 20260508140042 | 15 | 234 | 1.6 | 1.6 | 0.00 | 0.00 | 0.00 | 88 | 1014.7 |
| 20260508135542 | 15 | 248 | 0.0 | 1.6 | 0.00 | 0.00 | 0.00 | 88 | 1014.7 |
| 20260508135041 | 15 | 255 | 0.0 | 1.6 | 0.00 | 0.00 | 0.00 | 88 | 1014.6 |
| 20260508134540 | 15 | 245 | 0.0 | 3.2 | 0.00 | 0.00 | 0.00 | 88 | 1014.6 |
| 20260508134041 | 15 | 224 | 1.6 | 3.2 | 0.00 | 0.00 | 0.00 | 88 | 1014.6 |
| 20260508133543 | 15 | 220 | 1.6 | 3.2 | 0.00 | 0.00 | 0.00 | 88 | 1014.4 |
| 20260508133040 | 15 | 248 | 0.0 | 3.2 | 0.00 | 0.00 | 0.00 | 89 | 1014.4 |
| 20260508132541 | 15 | 225 | 3.2 | 3.2 | 0.00 | 0.00 | 0.00 | 89 | 1014.4 |
| 20260508132040 | 15 | 231 | 1.6 | 1.6 | 0.00 | 0.00 | 0.00 | 89 | 1014.3 |
| 20260508131541 | 15 | 248 | 0.0 | 1.6 | 0.00 | 0.00 | 0.00 | 89 | 1014.3 |
| 20260508131040 | 15 | 251 | 0.0 | 4.8 | 0.00 | 0.00 | 0.00 | 89 | 1014.2 |
| 20260508130540 | 15 | 251 | 0.0 | 4.8 | 0.00 | 0.00 | 0.00 | 89 | 1014.4 |
| 20260508130041 | 15 | 220 | 3.2 | 3.2 | 0.00 | 0.00 | 0.00 | 89 | 1014.2 |
| 20260508125541 | 15 | 244 | 0.0 | 1.6 | 0.00 | 0.00 | 0.00 | 89 | 1014.2 |
| 20260508125039 | 15 | 252 | 0.0 | 4.8 | 0.00 | 0.00 | 0.00 | 89 | 1014.2 |
| 20260508124540 | 15 | 254 | 0.0 | 4.8 | 0.00 | 0.00 | 0.00 | 89 | 1014.2 |
| 20260508124306 | 15 | 244 | 1.6 | 3.2 | 0.00 | 0.00 | 0.00 | 89 | 1014.1 |
| 20260508123539 | 15 | 254 | 0.0 | 1.6 | 0.00 | 0.00 | 0.00 | 89 | 1014.1 |
| 20260508123300 | 15 | 265 | 0.0 | 1.6 | 0.00 | 0.00 | 0.00 | 90 | 1014.2 |
| 20260508122041 | 15 | 262 | 0.0 | 1.6 | 0.00 | 0.00 | 0.00 | 89 | 1014.1 |
| 20260508121541 | 15 | 251 | 0.0 | 3.2 | 0.00 | 0.00 | 0.00 | 89 | 1014.1 |
| 20260508121038 | 15 | 259 | 0.0 | 3.2 | 0.00 | 0.00 | 0.00 | 89 | 1014.1 |
| 20260508120538 | 15 | 234 | 1.6 | 3.2 | 0.00 | 0.00 | 0.00 | 89 | 1014.1 |
| 20260508120039 | 15 | 249 | 0.0 | 3.2 | 0.00 | 0.00 | 0.00 | 89 | 1014.2 |
| 20260508115540 | 15 | 247 | 0.0 | 4.8 | 0.00 | 0.00 | 0.00 | 89 | 1014.1 |
| 20260508115038 | 15 | 250 | 0.0 | 4.8 | 0.00 | 0.00 | 0.00 | 89 | 1014.1 |
| 20260508114537 | 15 | 241 | 0.0 | 0.0 | 0.00 | 0.00 | 0.00 | 89 | 1014.1 |
| 20260508114039 | 15 | 243 | 0.0 | 0.0 | 0.00 | 0.00 | 0.00 | 89 | 1014.0 |
| 20260508113539 | 15 | 252 | 0.0 | 3.2 | 0.00 | 0.00 | 0.00 | 89 | 1014.1 |
| 20260508113037 | 15 | 262 | 0.0 | 3.2 | 0.00 | 0.00 | 0.00 | 89 | 1014.1 |
| 20260508112538 | 15 | 239 | 1.6 | 3.2 | 0.00 | 0.00 | 0.00 | 89 | 1014.0 |
| 20260508112039 | 15 | 256 | 0.0 | 3.2 | 0.00 | 0.00 | 0.00 | 89 | 1014.0 |
| 20260508111539 | 15 | 251 | 0.0 | 9.7 | 0.00 | 0.00 | 0.00 | 89 | 1014.0 |
| 20260508111037 | 15 | 226 | 1.6 | 9.7 | 0.00 | 0.00 | 0.00 | 89 | 1014.0 |
| 20260508110537 | 15 | 240 | 4.8 | 8.0 | 0.00 | 0.00 | 0.00 | 89 | 1014.0 |
| 20260508110036 | 15 | 241 | 1.6 | 4.8 | 0.00 | 0.00 | 0.00 | 88 | 1014.1 |
| 20260508105537 | 15 | 253 | 1.6 | 3.2 | 0.00 | 0.00 | 0.00 | 88 | 1014.0 |
| 20260508105038 | 15 | 243 | 1.6 | 3.2 | 0.00 | 0.00 | 0.00 | 88 | 1014.1 |
| 20260508104537 | 15 | 253 | 0.0 | 3.2 | 0.00 | 0.00 | 0.00 | 88 | 1014.0 |
| 20260508104036 | 15 | 248 | 0.0 | 4.8 | 0.00 | 0.00 | 0.00 | 88 | 1014.1 |
| 20260508103538 | 15 | 231 | 1.6 | 8.0 | 0.00 | 0.00 | 0.00 | 88 | 1014.1 |
| 20260508103257 | 15 | 245 | 1.6 | 8.0 | 0.00 | 0.00 | 0.00 | 88 | 1014.2 |
| 20260508102758 | 15 | 215 | 3.2 | 8.0 | 0.00 | 0.00 | 0.00 | 88 | 1014.3 |
| 20260508102036 | 15 | 258 | 4.8 | 8.0 | 0.00 | 0.00 | 0.00 | 88 | 1014.3 |
| 20260508101535 | 15 | 224 | 3.2 | 4.8 | 0.00 | 0.00 | 0.00 | 88 | 1014.3 |
| 20260508101036 | 15 | 248 | 0.0 | 3.2 | 0.00 | 0.00 | 0.00 | 88 | 1014.4 |
| 20260508100536 | 15 | 238 | 1.6 | 3.2 | 0.00 | 0.00 | 0.00 | 88 | 1014.4 |
| 20260508100034 | 15 | 243 | 1.6 | 8.0 | 0.00 | 0.00 | 0.00 | 88 | 1014.4 |
| 20260508095801 | 15 | 241 | 1.6 | 9.7 | 0.00 | 0.00 | 0.00 | 88 | 1014.3 |
| 20260508095035 | 15 | 223 | 3.2 | 9.7 | 0.00 | 0.00 | 0.00 | 88 | 1014.3 |
| 20260508094534 | 15 | 202 | 3.2 | 4.8 | 0.00 | 0.00 | 0.00 | 88 | 1014.2 |
| 20260508094033 | 15 | 239 | 1.6 | 4.8 | 0.00 | 0.00 | 0.00 | 89 | 1014.2 |
| 20260508093535 | 15 | 226 | 3.2 | 3.2 | 0.00 | 0.00 | 0.00 | 88 | 1014.1 |
| 20260508093035 | 15 | 245 | 0.0 | 3.2 | 0.00 | 0.00 | 0.00 | 88 | 1014.2 |
| 20260508092535 | 15 | 252 | 0.0 | 1.6 | 0.00 | 0.00 | 0.00 | 88 | 1014.2 |
| 20260508092033 | 15 | 244 | 0.0 | 0.0 | 0.00 | 0.00 | 0.00 | 89 | 1014.2 |
| 20260508091534 | 15 | 261 | 0.0 | 0.0 | 0.00 | 0.00 | 0.00 | 89 | 1014.3 |
| 20260508091034 | 15 | 270 | 0.0 | 1.6 | 0.00 | 0.00 | 0.00 | 89 | 1014.2 |
| 20260508090534 | 15 | 295 | 1.6 | 3.2 | 0.00 | 0.00 | 0.00 | 89 | 1014.2 |
| 20260508090033 | 15 | 231 | 1.6 | 3.2 | 0.00 | 0.00 | 0.00 | 89 | 1014.2 |
| 20260508085534 | 15 | 226 | 1.6 | 4.8 | 0.00 | 0.00 | 0.00 | 89 | 1014.3 |
| 20260508085034 | 15 | 223 | 3.2 | 8.0 | 0.00 | 0.00 | 0.00 | 89 | 1014.3 |
| 20260508084533 | 15 | 191 | 3.2 | 8.0 | 0.00 | 0.00 | 0.00 | 88 | 1014.4 |
| 20260508084033 | 15 | 234 | 1.6 | 4.8 | 0.00 | 0.00 | 0.00 | 88 | 1014.4 |
| 20260508083534 | 15 | 267 | 0.0 | 3.2 | 0.00 | 0.00 | 0.00 | 88 | 1014.4 |
| 20260508083033 | 15 | 244 | 1.6 | 3.2 | 0.00 | 0.00 | 0.00 | 88 | 1014.5 |
| 20260508082532 | 15 | 296 | 1.6 | 3.2 | 0.00 | 0.00 | 0.00 | 89 | 1014.5 |
| 20260508082031 | 15 | 251 | 1.6 | 4.8 | 0.00 | 0.00 | 0.00 | 88 | 1014.5 |
| 20260508081753 | 15 | 240 | 1.6 | 8.0 | 0.00 | 0.00 | 0.00 | 88 | 1014.7 |
| 20260508081033 | 16 | 169 | 4.8 | 8.0 | 0.00 | 0.00 | 0.00 | 89 | 1014.7 |
| 20260508080532 | 16 | 189 | 4.8 | 4.8 | 0.00 | 0.00 | 0.00 | 88 | 1014.7 |
| 20260508080032 | 16 | 224 | 3.2 | 3.2 | 0.00 | 0.00 | 0.00 | 88 | 1014.8 |
| 20260508075533 | 16 | 252 | 0.0 | 1.6 | 0.00 | 0.00 | 0.00 | 88 | 1014.8 |
| 20260508075253 | 16 | 246 | 0.0 | 1.6 | 0.00 | 0.00 | 0.00 | 88 | 1014.9 |
| 20260508074531 | 16 | 256 | 0.0 | 4.8 | 0.00 | 0.00 | 0.00 | 88 | 1014.9 |
| 20260508074031 | 16 | 246 | 0.0 | 4.8 | 0.00 | 0.00 | 0.00 | 88 | 1014.9 |
| 20260508073755 | 16 | 332 | 0.0 | 3.2 | 0.00 | 0.00 | 0.00 | 87 | 1014.8 |
| 20260508073032 | 16 | 248 | 0.0 | 1.6 | 0.00 | 0.00 | 0.00 | 87 | 1014.9 |
| 20260508072532 | 16 | 258 | 0.0 | 1.6 | 0.00 | 0.00 | 0.00 | 87 | 1014.8 |
| 20260508072032 | 16 | 243 | 0.0 | 1.6 | 0.00 | 0.00 | 0.00 | 87 | 1014.8 |
| 20260508071530 | 16 | 250 | 0.0 | 1.6 | 0.00 | 0.00 | 0.00 | 87 | 1014.9 |
| 20260508071032 | 15 | 248 | 0.0 | 3.2 | 0.00 | 0.00 | 0.00 | 87 | 1015.0 |
| 20260508070531 | 15 | 254 | 0.0 | 3.2 | 0.00 | 0.00 | 0.00 | 87 | 1015.0 |
| 20260508070030 | 15 | 252 | 0.0 | 1.6 | 0.00 | 0.00 | 0.00 | 88 | 1015.0 |
| 20260508065530 | 15 | 262 | 0.0 | 1.6 | 0.00 | 0.00 | 0.00 | 88 | 1015.0 |
| 20260508065257 | 15 | 239 | 0.0 | 3.2 | 0.00 | 0.00 | 0.00 | 88 | 1015.1 |
| 20260508064530 | 16 | 238 | 1.6 | 3.2 | 0.00 | 0.00 | 0.00 | 87 | 1015.1 |
| 20260508064031 | 16 | 243 | 1.6 | 3.2 | 0.00 | 0.00 | 0.00 | 87 | 1015.1 |
| 20260508063530 | 16 | 235 | 1.6 | 4.8 | 0.00 | 0.00 | 0.00 | 87 | 1015.2 |
| 20260508063030 | 16 | 225 | 1.6 | 8.0 | 0.00 | 0.00 | 0.00 | 87 | 1015.1 |
| 20260508062531 | 16 | 271 | 0.0 | 8.0 | 0.00 | 0.00 | 0.00 | 87 | 1015.1 |
| 20260508062029 | 16 | 158 | 4.8 | 8.0 | 0.00 | 0.00 | 0.00 | 87 | 1015.1 |
| 20260508061529 | 16 | 221 | 0.0 | 3.2 | 0.00 | 0.00 | 0.00 | 87 | 1015.2 |
| 20260508061030 | 16 | 237 | 0.0 | 3.2 | 0.00 | 0.00 | 0.00 | 87 | 1015.2 |
| 20260508060531 | 16 | 242 | 0.0 | 4.8 | 0.00 | 0.00 | 0.00 | 86 | 1015.2 |
| 20260508060029 | 16 | 252 | 0.0 | 8.0 | 0.00 | 0.00 | 0.00 | 87 | 1015.3 |
| 20260508055529 | 16 | 250 | 3.2 | 9.7 | 0.00 | 0.00 | 0.00 | 87 | 1015.2 |
| 20260508055029 | 16 | 224 | 4.8 | 9.7 | 0.00 | 0.00 | 0.00 | 87 | 1015.2 |
| 20260508054530 | 16 | 212 | 4.8 | 8.0 | 0.00 | 0.00 | 0.00 | 87 | 1015.1 |
| 20260508054029 | 16 | 240 | 3.2 | 8.0 | 0.00 | 0.00 | 0.00 | 87 | 1015.2 |
| 20260508053529 | 16 | 213 | 4.8 | 8.0 | 0.00 | 0.00 | 0.00 | 86 | 1015.1 |
| 20260508053253 | 16 | 242 | 1.6 | 3.2 | 0.00 | 0.00 | 0.00 | 86 | 1015.1 |
| 20260508052529 | 16 | 253 | 0.0 | 1.6 | 0.00 | 0.00 | 0.00 | 86 | 1015.1 |
| 20260508052028 | 16 | 255 | 0.0 | 1.6 | 0.00 | 0.00 | 0.00 | 86 | 1015.1 |